DELTA 1 DEB, 7134

Orbit data source: Space-Track

DELTA 1 DEB, 7134 is space debris in SSO originally from a launch on Tue, 06 Nov 1973 UTC launched from the Air Force Western Test Range (AFWTR). Debris objects in space refer to the collection of defunct objects orbiting the Earth. Examples of debris include non-operational satellites, rocket bodies, and fragments generated from explosions, collisions, or faulty payload assembly.

Loading next visibility...
Identifier
7134, 1973-086CY
Orbit
SSO
Country
Flag of USUS
Related business
Manufacturer
Unknown
Mission
Spacecraft
Bus & Motor
Unknown
Mass
Unknown
Launch date (UTC)
1973-11-06 (52 years ago)
Launch vehicle
Unknown
Launch site
Air Force Western Test Range (AFWTR)
Object type
Payload
Rocket body
Debris
Shape & HBR
Unknown shape, 0.2 m
Radar Cross Section
Small (<0.1 m²)

Expand to show TLE details & history
Last TLE update: 18 hours ago

TLE from 18 hours ago
0 DELTA 1 DEB
1  7134U 73086CY  26122.29160390  .00000071  00000-0  73321-3 0  9999
2  7134 101.8462 257.5348 0005629  35.6809 353.7317 12.52960280394321
Epoch: 2026-05-02T06:59Z
TLE epoch observation values (Epoch: 2026-05-02T06:59:54.576Z)
Latitude
28.7646°
Longitude
-74.23346°
Altitude
1,451.024 km
Speed
7.141 km/s
True Right ascension
16h 43m 49s
True Declination
28° 37' 57"
Sunlit
Object was in full shadow at epoch
Visualization orbit readout
Latitude
Unknown
Longitude
Unknown
Altitude
Unknown
Speed
Unknown
Apparent Right ascension
Unknown
Apparent Declination
Unknown
Sunlit
N/A
Visualization observer readout
Local Sidereal Time
08:20:03
Azimuth
Unknown
Elevation
Unknown
Doppler factor
Unknown
Orbital elements
Apogee altitude
1,454.092 km
Perigee altitude
1,445.28 km
Semi-major axis
7,827.823 km
Eccentricity
0.00056
Inclination
101.8462°
RAAN
257.5348°
Arg. of periapsis
35.6809°
True anomaly
353.72465°
Mean anomaly
353.7317°
Eccentric anomaly
353.72818°
Mean motion
3.13388 °/min
Orbital period
114.87 mins
BSTAR
0.00073321
Loading maneuver chart data...
Computing Atmospheric mass density...
Loading historical data...
Loading historical data...
Loading historical data...
Loading historical data...
Loading historical data...
Loading historical data...
Loading historical data...

Documentation

Showing up to 5 results
|